Stations météo

réclame
Mon MeteoGroup
Bastia, France (7790): Température de l'air & dewpoint: 12.08.2018 02:00:00 - 18.08.2018 02:00:00 (CEST)Bastia, France (7790): Température de l'air 5cm: 12.08.2018 02:00:00 - 18.08.2018 02:00:00 (CEST)Bastia, France (7790): Température de l'air -20cm & Température de l'air -100cm: 12.08.2018 02:00:00 - 18.08.2018 02:00:00 (CEST)Bastia, France (7790): Vitesse du vent & gusts: 12.08.2018 02:00:00 - 18.08.2018 02:00:00 (CEST)Bastia, France (7790): Direction du vent: 12.08.2018 02:00:00 - 18.08.2018 02:00:00 (CEST)Bastia, France (7790): reduced air pressure: 12.08.2018 02:00:00 - 18.08.2018 02:00:00 (CEST)Bastia, France (7790): visibility: 12.08.2018 02:00:00 - 18.08.2018 02:00:00 (CEST)Bastia, France (7790): Ensoleillement: 12.08.2018 02:00:00 - 18.08.2018 02:00:00 (CEST)Bastia, France (7790): Quantités de précipitations: 12.08.2018 02:00:00 - 18.08.2018 02:00:00 (CEST)
Date & Time tt [°C] td [°C] tt 5cm [°C] tt -20cm [°C] tt -100cm [°C] ff [km/h] ff [knt] fx [km/h] fx [knt] dd ppp [hPa] vv [km] sd [min] rr [mm]
18.08.2018 02:00:00 22,2 17,1 19,9 27,4 25,5 7 4 11 6 SW 1015,5 60 0 0,0
18.08.2018 01:00:00 22,5 17,2 20,5 27,5 25,6 6 3 15 8 SW 1015,4 60 0 0,0
18.08.2018 00:00:00 23,0 18,1 19,3 27,5 25,5 9 5 16 8 SSW 1015,4 60 0 0,0
17.08.2018 23:00:00 22,8 17,9 19,1 27,4 25,5 4 2 19 10 S 1015,3 60 0 0,0
17.08.2018 22:00:00 23,7 18,3 21,5 27,4 25,6 7 4 10 5 SSW 1015,1 60 0 0,0
17.08.2018 21:00:00 25,4 17,8 23,6 27,4 25,6 8 4 19 10 WSW 1014,6 60 0 0,0
17.08.2018 20:00:00 26,5 18,6 25,9 27,2 25,6 14 8 29 15 SSW 1014,1 60 60 0,0
17.08.2018 19:00:00 26,8 18,1 26,9 27,1 25,6 16 9 29 16 SSW 1013,8 60 6 0,0
17.08.2018 18:00:00 26,7 17,7 27,1 26,9 25,6 16 9 26 14 SW 1013,9 52 0 0,0
17.08.2018 17:00:00 27,2 18,8 28,5 26,7 25,6 11 6 24 13 S 1014,5 60 0 0,0
17.08.2018 16:00:00 29,5 18,6 34,2 26,6 25,6 13 7 29 16 NNE 1014,5 60 56 0,0
17.08.2018 15:00:00 29,4 18,5 33,6 26,5 25,6 13 7 30 16 NNE 1014,8 20 46 0,0
17.08.2018 14:00:00 29,8 17,6 38,0 26,5 25,6 16 9 27 15 NNE 1014,9 54 60 0,0
17.08.2018 13:00:00 30,3 18,4 38,3 26,5 25,6 16 9 28 15 NNE 1015,1 60 60 0,0
17.08.2018 12:00:00 30,1 19,2 37,4 26,5 25,6 14 8 30 16 NE 1014,9 46 60 0,0
17.08.2018 11:00:00 29,6 17,1 35,6 26,6 25,6 9 5 21 12 NE 1014,9 60 60 0,0
17.08.2018 10:00:00 29,0 18,1 30,4 26,7 25,6 5 3 14 7 SSE 1014,7 53 60 0,0
17.08.2018 09:00:00 26,1 16,1 25,0 26,8 25,7 11 6 22 12 SSW 1014,6 57 60 0,0
17.08.2018 08:00:00 23,6 15,4 21,6 26,9 25,6 13 7 22 12 SW 1014,5 60 55 0,0
17.08.2018 07:00:00 22,4 15,3 20,9 27,1 25,6 14 7 21 12 SW 1014,4 55 4 0,0
17.08.2018 06:00:00 22,3 15,4 20,7 27,2 25,6 13 7 21 11 SW 1014,0 60 0 0,0
17.08.2018 05:00:00 21,9 15,3 19,9 27,3 25,7 11 6 18 10 SW 1013,9 60 0 0,0
17.08.2018 04:00:00 22,9 16,0 20,8 27,4 25,7 9 5 17 9 SW 1014,1 60 0 0,0
17.08.2018 03:00:00 22,8 15,4 20,8 27,4 25,7 9 5 19 11 SW 1014,1 60 0 0,0
17.08.2018 02:00:00 23,2 15,0 20,0 27,5 25,7 10 5 18 10 SW 1014,2 60 0 0,0
17.08.2018 01:00:00 22,5 14,3 19,6 27,5 25,7 4 2 13 7 WSW 1014,4 60 0 0,0
17.08.2018 00:00:00 21,5 15,6 19,8 27,5 25,7 7 4 11 6 SW 1014,0 60 0 0,0
16.08.2018 23:00:00 21,6 15,4 20,3 27,5 25,7 9 5 11 6 SW 1014,0 60 0 0,0
16.08.2018 22:00:00 22,4 16,2 20,9 27,4 25,7 7 4 10 6 SW 1014,0 60 0 0,0
16.08.2018 21:00:00 23,4 16,4 21,4 27,3 25,7 8 4 10 5 SW 1013,4 55 0 0,0
16.08.2018 20:00:00 27,5 16,5 25,2 27,1 25,7 4 2 21 11 WSW 1013,1 60 40 0,0
16.08.2018 19:00:00 30,1 12,1 33,9 27,0 25,7 8 4 15 8 NW 1013,0 57 60 0,0
16.08.2018 18:00:00 30,3 13,1 36,9 26,8 25,7 6 3 18 10 NE 1013,5 59 60 0,0
16.08.2018 17:00:00 30,3 14,0 37,0 26,6 25,8 9 5 23 13 N 1013,6 60 60 0,0
16.08.2018 16:00:00 29,8 14,4 37,1 26,5 25,8 14 8 27 15 N 1014,2 47 60 0,0
16.08.2018 15:00:00 29,6 17,1 37,2 26,4 25,8 16 9 39 21 N 1014,7 44 60 0,0
16.08.2018 14:00:00 29,6 17,4 36,7 26,4 25,8 16 9 29 15 N 1015,0 42 60 0,0
16.08.2018 13:00:00 29,3 17,5 36,1 26,4 25,8 17 9 29 16 NNW 1015,4 60 60 0,0
16.08.2018 12:00:00 28,8 17,7 34,7 26,5 25,8 16 9 27 14 N 1015,7 60 60 0,0
16.08.2018 11:00:00 28,5 17,7 33,9 26,6 25,8 16 9 28 15 N 1015,8 60 60 0,0
16.08.2018 10:00:00 28,0 17,5 30,7 26,6 25,8 13 7 22 12 N 1015,5 49 60 0,0
16.08.2018 09:00:00 25,7 18,4 24,9 26,8 25,8 7 4 13 7 SSW 1015,5 60 60 0,0
16.08.2018 08:00:00 23,0 17,9 19,9 26,9 25,8 8 4 11 6 SSW 1015,3 60 60 0,0
16.08.2018 07:00:00 20,3 17,3 18,5 27,0 25,8 7 4 12 6 SSW 1015,2 47 1 0,0
16.08.2018 06:00:00 19,6 17,2 18,5 27,1 25,8 7 4 11 6 SSW 1015,0 60 0 0,0
16.08.2018 05:00:00 20,3 17,3 19,1 27,2 25,8 7 4 11 6 SW 1015,1 60 0 0,0
16.08.2018 04:00:00 21,2 17,6 19,4 27,3 25,8 7 4 12 7 W 1015,2 60 0 0,0
16.08.2018 03:00:00 20,8 17,8 19,6 27,4 25,9 8 4 15 8 SSW 1015,4 60 0 0,0
16.08.2018 02:00:00 22,2 17,8 19,3 27,4 25,9 6 3 13 7 WSW 1015,6 60 0 0,0
16.08.2018 01:00:00 21,5 18,1 19,4 27,5 25,9 5 3 13 7 SSW 1015,6 60 0 0,0
16.08.2018 00:00:00 21,5 18,3 20,2 27,5 25,9 7 4 10 5 SW 1015,6 60 0 0,0
15.08.2018 23:00:00 21,9 18,3 20,5 27,5 25,9 5 3 10 5 SSW 1015,3 60 0 0,0
15.08.2018 22:00:00 23,1 18,4 21,5 27,4 25,9 9 5 12 7 SW 1015,2 60 0 0,0
15.08.2018 21:00:00 24,4 17,9 22,8 27,4 25,9 7 4 19 10 WSW 1014,7 60 0 0,0
15.08.2018 20:00:00 26,5 17,6 25,8 27,3 25,9 13 7 29 16 NNW 1014,4 60 32 0,0
15.08.2018 19:00:00 27,9 17,4 30,4 27,2 25,9 16 9 28 15 N 1014,2 60 60 0,0
15.08.2018 18:00:00 28,1 18,2 33,0 27,1 25,9 19 11 34 19 N 1014,3 41 60 0,0
15.08.2018 17:00:00 28,2 18,6 33,0 27,0 26,0 22 12 32 18 N 1014,3 40 60 0,0
15.08.2018 16:00:00 28,4 17,6 34,3 26,9 25,9 21 12 39 21 N 1014,4 33 60 0,0
15.08.2018 15:00:00 28,3 17,8 34,3 26,9 26,0 24 13 42 23 N 1014,6 40 60 0,0
15.08.2018 14:00:00 28,6 18,7 33,7 26,9 26,0 23 13 39 21 N 1014,7 55 60 0,0
15.08.2018 13:00:00 28,0 19,2 27,4 26,9 26,0 20 11 32 17 N 1014,7 60 31 0,0
15.08.2018 12:00:00 26,7 18,8 28,1 27,0 26,0 15 8 28 15 N 1014,7 45 10 0,0
15.08.2018 11:00:00 25,7 19,6 26,9 27,1 26,0 11 6 24 13 N 1014,3 56 23 0,0
15.08.2018 10:00:00 25,5 19,4 26,5 27,2 26,0 12 7 21 12 N 1014,2 59 22 0,0
15.08.2018 09:00:00 25,1 19,5 21,5 27,3 26,0 13 7 21 11 NW 1013,9 58 60 0,0
15.08.2018 08:00:00 21,4 18,0 19,6 27,4 26,0 11 6 29 16 SW 1013,5 60 3 0,0
15.08.2018 07:00:00 20,7 18,6 19,1 27,5 26,0 6 4 14 8 WSW 1013,3 51 0 0,4
15.08.2018 06:00:00 20,8 17,8 19,3 27,6 26,0 8 4 13 7 SW 1013,1 53 0 0,0
15.08.2018 05:00:00 20,6 18,4 19,4 27,7 26,0 8 4 11 6 SW 1012,7 58 0 0,0
15.08.2018 04:00:00 21,9 18,9 20,2 27,8 26,0 9 5 23 12 WSW 1012,6 18 0 0,0
15.08.2018 03:00:00 21,9 19,5 20,8 27,9 26,0 14 7 22 12 SW 1012,3 56 0 0,0
15.08.2018 02:00:00 21,8 20,3 21,3 27,9 26,1 12 6 16 9 SW 1012,7 40 0 0,0
15.08.2018 01:00:00 22,3 21,5 21,8 27,9 26,1 8 4 11 6 WSW 1013,1 10 0 0,0
15.08.2018 00:00:00 22,6 21,4 21,7 28,0 26,1 5 3 16 8 WSW 1012,7 4,4 0 2,6
14.08.2018 23:00:00 23,6 20,9 21,8 27,9 26,1 7 4 16 8 SSW 1012,2 53 0 0,2
14.08.2018 22:00:00 23,8 19,9 21,5 27,9 26,1 12 7 25 13 ENE 1011,9 46 0 0,4
14.08.2018 21:00:00 24,5 21,0 23,8 27,8 26,1 7 4 10 6 W 1011,6 50 0 0,0
14.08.2018 20:00:00 25,6 21,5 24,7 27,7 26,1 3 2 14 8 ESE 1011,3 59 12 0,0
14.08.2018 19:00:00 26,4 20,9 27,9 27,6 26,1 10 6 31 17 ENE 1010,9 57 25 0,0
14.08.2018 18:00:00 28,2 18,3 30,6 27,5 26,1 8 4 19 10 E 1011,2 60 41 0,0
14.08.2018 17:00:00 28,5 20,2 33,0 27,5 26,1 8 5 16 9 SE 1010,9 60 56 0,0
14.08.2018 16:00:00 27,2 22,8 23,9 27,4 26,1 6 3 18 10 SSE 1011,1 60 32 1,7
14.08.2018 15:00:00 24,4 21,9 24,0 27,4 26,1 7 4 16 9 S 1011,6 8 7 4,0
14.08.2018 14:00:00 24,9 22,2 20,2 27,4 26,1 7 4 56 30 S 1012,3 19 22 -
14.08.2018 13:00:00 25,5 22,0 24,1 27,5 26,1 15 8 26 14 NE 1012,4 7 22 -
14.08.2018 12:00:00 27,2 21,2 32,7 27,5 26,1 15 8 25 14 NNE 1012,4 50 52 0,0
14.08.2018 11:00:00 27,4 20,5 28,7 27,6 26,1 8 5 29 16 N 1012,6 33 42 0,0
14.08.2018 10:00:00 27,2 21,0 26,1 27,7 26,2 17 9 31 17 N 1012,4 60 23 0,0
14.08.2018 09:00:00 24,5 18,4 22,1 27,9 26,2 5 3 22 12 WNW 1011,9 60 0 0,0
14.08.2018 08:00:00 22,7 18,9 19,5 28,0 26,2 10 5 36 19 WSW 1011,9 58 0 0,2
14.08.2018 07:00:00 21,3 18,3 19,6 28,0 26,2 18 10 32 18 SW 1012,1 39 0 0,0
14.08.2018 06:00:00 21,0 18,8 19,4 28,2 26,2 10 5 16 9 SW 1011,6 43 0 0,2
14.08.2018 05:00:00 20,5 18,3 19,5 28,3 26,2 8 5 10 6 SSW 1011,4 47 0 0,0
14.08.2018 04:00:00 21,3 18,3 19,3 28,3 26,2 8 4 12 7 SW 1011,7 56 0 0,0
14.08.2018 03:00:00 21,6 18,8 20,0 28,4 26,2 4 2 15 8 SW 1011,8 56 0 0,0
14.08.2018 02:00:00 22,3 18,9 20,7 28,4 26,2 8 4 17 9 SSW 1012,0 54 0 0,0
14.08.2018 01:00:00 22,2 19,6 21,0 28,5 26,2 4 2 8 4 S 1012,2 42 0 0,0
14.08.2018 00:00:00 23,2 20,7 22,4 28,5 26,2 3 2 9 5 SW 1012,4 19 0 0,0
13.08.2018 23:00:00 23,3 20,6 22,7 28,5 26,2 6 4 10 5 SW 1012,6 51 0 0,0
13.08.2018 22:00:00 24,2 19,9 23,0 28,5 26,2 5 3 9 5 NW 1012,9 55 0 0,0
13.08.2018 21:00:00 24,3 20,6 23,1 28,5 26,2 5 3 10 6 SSW 1012,4 48 4 0,0
13.08.2018 20:00:00 25,9 20,5 25,6 28,5 26,2 6 4 13 7 SSE 1012,1 60 22 0,0
13.08.2018 19:00:00 28,0 19,0 31,2 28,4 26,2 9 5 14 7 SE 1012,1 59 60 0,0
13.08.2018 18:00:00 28,1 19,1 30,3 28,4 26,2 7 4 15 8 SE 1012,5 60 31 0,0
13.08.2018 17:00:00 28,6 21,9 31,6 28,4 26,2 6 4 15 8 SE 1012,9 20 48 0,0
13.08.2018 16:00:00 25,7 20,9 25,4 28,4 26,2 6 4 15 8 SE 1013,5 58 0 0,0
13.08.2018 15:00:00 23,3 21,0 21,6 28,4 26,3 3 2 9 5 SSE 1013,9 55 0 0,0
13.08.2018 14:00:00 21,4 19,3 20,4 28,4 26,3 7 4 34 18 S 1015,0 49 0 3,3
13.08.2018 13:00:00 23,1 19,5 20,9 28,4 26,2 21 11 74 40 N 1015,4 3,3 29 -
13.08.2018 12:00:00 29,8 22,0 36,9 28,5 26,3 13 7 28 15 E 1014,6 60 60 0,0
13.08.2018 11:00:00 29,0 22,2 35,9 28,6 26,2 16 9 26 14 SE 1014,3 60 60 0,0
13.08.2018 10:00:00 29,0 22,5 32,3 28,7 26,2 13 7 26 14 SE 1014,3 60 60 0,0
13.08.2018 09:00:00 26,8 20,6 26,0 28,8 26,3 7 4 13 7 SSW 1014,3 59 60 0,0
13.08.2018 08:00:00 24,4 20,1 22,5 28,9 26,3 8 4 14 8 SW 1014,3 35 60 0,0
13.08.2018 07:00:00 22,7 19,1 20,5 29,0 26,2 13 7 18 10 SW 1014,1 44 6 0,0
13.08.2018 06:00:00 21,7 19,1 20,6 29,0 26,3 7 4 10 5 SW 1014,1 45 0 0,0
13.08.2018 05:00:00 21,9 19,5 20,5 29,1 26,3 7 4 10 5 SSW 1014,5 46 0 0,0
13.08.2018 04:00:00 22,3 19,7 20,8 29,2 26,3 4 2 10 5 SSW 1014,5 49 0 0,0
13.08.2018 03:00:00 23,4 20,0 22,4 29,3 26,3 8 5 16 9 WSW 1014,7 51 0 0,0
13.08.2018 02:00:00 23,5 20,6 22,5 29,3 26,3 9 5 18 10 SSW 1015,0 48 0 0,0
13.08.2018 01:00:00 23,2 20,9 21,4 29,3 26,3 9 5 13 7 SSW 1015,4 39 0 0,0
13.08.2018 00:00:00 23,5 21,2 20,8 29,3 26,3 4 2 20 11 WNW 1015,8 31 0 0,0
12.08.2018 23:00:00 24,0 21,7 22,4 29,3 26,3 4 2 6 4 SW 1015,8 35 0 0,0
12.08.2018 22:00:00 24,8 21,9 22,8 29,2 26,3 3 2 7 4 SW 1015,6 46 0 0,0
12.08.2018 21:00:00 25,6 21,9 24,0 29,1 26,3 4 2 7 4 S 1015,5 19 6 0,0
12.08.2018 20:00:00 27,1 22,3 27,6 29,0 26,3 5 3 10 6 SSE 1015,2 59 48 0,0
12.08.2018 19:00:00 27,7 22,2 29,2 28,9 26,3 3 1 12 6 SE 1015,4 54 17 0,0
12.08.2018 18:00:00 27,7 22,2 29,3 28,8 26,3 8 4 16 9 E 1016,0 58 0 0,0
12.08.2018 17:00:00 27,7 22,0 29,9 28,6 26,3 8 5 20 11 NE 1016,3 59 3 0,0
12.08.2018 16:00:00 28,5 22,0 31,8 28,5 26,3 11 6 25 14 ENE 1016,7 52 25 0,0
12.08.2018 15:00:00 30,1 22,3 37,3 28,5 26,3 12 6 24 13 E 1017,1 55 47 0,0
12.08.2018 14:00:00 29,8 21,7 38,6 28,5 26,3 12 7 30 16 E 1017,4 54 56 0,0
12.08.2018 13:00:00 30,0 21,9 32,9 28,5 26,3 11 6 28 15 E 1017,6 19 51 0,0
12.08.2018 12:00:00 29,1 21,6 32,7 28,6 26,3 12 6 26 14 E 1017,8 55 42 0,0
12.08.2018 11:00:00 29,0 22,2 34,2 28,7 26,3 13 7 23 13 ENE 1017,8 60 54 0,0
12.08.2018 10:00:00 28,7 21,5 31,1 28,8 26,3 10 5 19 11 ESE 1017,7 46 60 0,0
12.08.2018 09:00:00 26,0 18,4 24,8 28,9 26,3 8 5 14 8 SSW 1017,6 37 47 0,0
12.08.2018 08:00:00 24,1 17,3 21,9 29,1 26,4 9 5 15 8 SSW 1017,4 18 57 0,0
12.08.2018 07:00:00 22,2 16,7 20,6 29,2 26,3 10 5 16 8 SSW 1017,0 38 7 0,0
12.08.2018 06:00:00 21,5 16,5 20,4 29,3 26,4 9 5 14 7 SW 1016,8 53 0 0,0
12.08.2018 05:00:00 22,4 16,0 20,5 29,4 26,3 10 5 16 9 SSW 1016,7 59 0 0,0
12.08.2018 04:00:00 21,6 15,9 19,8 29,5 26,3 4 2 13 7 NNE 1017,0 57 0 0,0
12.08.2018 03:00:00 21,6 16,5 20,1 29,6 26,4 7 4 12 6 SW 1017,1 56 0 0,0
12.08.2018 02:00:00 23,0 16,1 21,4 29,6 26,4 9 5 22 12 SSW 1017,1 60 0 0,0

tt = Température de l'air
td = dewpoint
tt 5cm = Température de l'air 5cm
tt -20cm = Température de l'air -20cm
tt -100cm = Température de l'air -100cm
ff = Vitesse du vent
fx = gusts
dd = Direction du vent
ppp = reduced air pressure
vv = visibility
sd = Ensoleillement
rr = Quantités de précipitations

stations d'obs. à proximité